FW4102 Weather Reports


Display with metric or nautical units.
time (UTC)temp
F
wind
direction
speed
MPH
gust
MPH
rain 1hr
in
rain 24hr
in
rain mn
in
humidity
%
barometer
mb
20260503203036 53 270 4.0 18.0 0.00 0.81 0.50 68 1009.7
20260503201538 53 277 4.0 13.0 0.00 0.81 0.50 68 1009.5
20260503200035 53 267 5.0 14.0 0.00 0.81 0.50 68 1009.5
20260503194537 53 263 5.0 16.0 0.00 0.81 0.50 68 1009.3
20260503193040 53 270 5.0 22.0 0.00 0.81 0.49 68 1009.1
20260503191535 53 310 8.0 22.0 0.01 0.81 0.49 68 1009.0
20260503190042 53 252 4.0 20.0 0.01 0.81 0.49 68 1009.1
20260503184537 53 267 7.0 20.0 0.01 0.81 0.49 68 1009.0
20260503183052 53 267 7.0 19.0 0.00 0.80 0.48 68 1008.9
20260503181540 53 281 4.0 13.0 0.00 0.82 0.48 68 1009.0
20260503180037 53 280 6.0 17.0 0.00 0.82 0.48 68 1009.1
20260503174536 53 288 5.0 21.0 0.00 0.82 0.48 68 1009.1
20260503173035 53 249 5.0 17.0 0.00 0.82 0.48 68 1009.2
20260503171537 53 280 4.0 24.0 0.00 0.83 0.48 68 1009.3
20260503081535 55 286 5.0 20.0 0.06 0.31 0.31 60 1009.1
20260503071538 55 293 6.0 24.0 0.00 0.30 0.25 61 1008.5
20260503054541 53 281 8.0 24.0 0.10 0.37 0.22 64 1008.9
20260503053032 54 263 6.0 16.0 0.05 0.33 0.17 65 1008.8
20260503051536 55 287 5.0 13.0 0.03 0.43 0.15 63 1008.9
20260503050035 56 221 9.0 24.0 0.00 0.39 0.11 60 1008.6
20260503044542 56 252 8.0 22.0 0.00 0.39 0.11 60 1008.4
20260503043040 56 269 9.0 23.0 0.00 0.39 0.11 58 1008.1
20260503041537 56 281 12.0 24.0 0.00 0.52 0.11 58 1008.3
20260503040038 57 296 9.0 20.0 0.00 0.52 0.11 58 1008.6
20260503034534 57 277 12.0 28.0 0.00 0.52 0.11 57 1008.5
20260503033044 57 267 11.0 34.0 0.00 0.52 0.11 60 1008.5
20260503031539 56 296 10.0 22.0 0.00 0.57 0.11 62 1008.6
20260503030036 56 294 10.0 25.0 0.00 0.57 0.11 60 1008.7
20260503024533 57 276 7.0 17.0 0.00 0.56 0.11 58 1008.7
20260503023037 56 267 9.0 25.0 0.00 0.56 0.11 58 1008.8
20260503021537 55 290 11.0 23.0 0.00 0.56 0.11 60 1008.9
20260503020037 54 268 10.0 21.0 0.00 0.56 0.11 62 1009.1
20260503014536 55 263 7.0 16.0 0.00 0.55 0.10 60 1009.1
20260503013044 55 296 11.0 25.0 0.00 0.55 0.10 60 1008.9
20260503011537 55 277 9.0 23.0 0.00 0.55 0.10 60 1008.9
20260503010047 55 269 8.0 19.0 0.00 0.55 0.10 60 1009.0
20260503004537 55 303 8.0 23.0 0.00 0.55 0.10 59 1008.9
20260503003035 54 291 8.0 24.0 0.00 0.55 0.10 59 1009.0
20260503001535 54 285 12.0 22.0 0.00 0.63 0.10 59 1008.7
20260503000037 53 265 9.0 22.0 0.00 0.63 0.10 60 1008.7
20260502234539 53 262 7.0 18.0 0.00 0.63 0.10 61 1008.8
20260502233033 52 291 8.0 19.0 0.00 0.63 0.10 61 1009.0
20260502231537 52 220 6.0 15.0 0.00 0.63 0.10 61 1009.3
20260502230034 52 243 6.0 16.0 0.00 0.63 0.10 62 1009.4
20260502224539 51 299 6.0 13.0 0.00 0.63 0.10 63 1009.3
20260502223035 51 266 6.0 14.0 0.00 0.63 0.10 64 1009.2
20260502221535 50 281 6.0 17.0 0.00 0.63 0.10 64 1009.3
20260502220039 50 281 5.0 17.0 0.00 0.63 0.10 65 1009.3
20260502214542 50 292 4.0 19.0 0.00 0.63 0.10 64 1009.2
20260502213035 51 273 4.0 13.0 0.00 0.63 0.10 64 1009.1
20260502211537 51 290 8.0 15.0 0.00 0.62 0.09 64 1008.9
20260502210047 51 282 7.0 16.0 0.00 0.62 0.09 65 1008.7
20260502204533 51 293 5.0 13.0 0.00 0.62 0.09 65 1008.5